Regional Weather Roundup
Issued by NWS Lake Charles, LA

Home | Current Version | Previous Version | Text Only | Print | Product List | Glossary On
Versions: 1 2 3 4 5 6 7 8 9 10 11 12 13 14 15 16 17 18 19 20 21 22 23 24 25 26 27
000
ASUS44 KLCH 240810
RWRLCH
REGIONAL WEATHER ROUNDUP
NATIONAL WEATHER SERVICE LAKE CHARLES LA
300 AM CDT WED AUG 24 2016

Note: "fair" indicates few or no clouds below 12,000 feet with no
significant weather and/or obstructions to visibility.


ACROSS SOUTHEAST TEXAS

CITY           SKY/WX    TMP DP  RH WIND       PRES   REMARKS
BEAUMONT       CLEAR     78  77  96 CALM      30.13F
BEAUMONT CITY  FAIR      78  76  92 CALM      30.14F
ORANGE           N/A     76  74  96 CALM      30.15S FOG
JASPER         CLEAR     76  75  97 CALM      30.17F FOG
$$

ACROSS CENTRAL LOUISIANA

CITY           SKY/WX    TMP DP  RH WIND       PRES   REMARKS
LEESVILLE      CLEAR     76  75  96 W2        30.15F
FULLERTON      FAIR      76  75  97 CALM      30.12F FOG
ALEXANDRIA INT CLEAR     77  75  93 CALM      30.12F
ESLER FIELD    FOG       75  75 100 CALM      30.14S VSB 1/2
DERIDDER       FAIR      75  74  95 CALM      30.16F
OAKDALE        SUNNY     74  73  98 CALM      30.14F FOG
OPELOUSAS      FAIR      76  76  99 S5        30.14F
$$

ACROSS SOUTHWEST AND SOUTH CENTRAL LOUISIANA

CITY           SKY/WX    TMP DP  RH WIND       PRES   REMARKS
SULPHUR        SUNNY     78  77  97 CALM      30.14S
LAKE CHARLES   CLEAR     77  76  96 CALM      30.13F
CHENNAULT INT  CLEAR     76  75  96 CALM      30.14S
CAMERON PHI    SUNNY     84  77  79 S6        30.13S
DEQUINCY       FAIR      74  74 100 CALM      30.14F
JENNINGS       FAIR      79  77  94 CALM      30.13F
LAFAYETTE      CLEAR     81  78  91 CALM      30.14F
NEW IBERIA     CLEAR     78  76  93 N3        30.14F
ABBEVILLE      FAIR      76  76 100 CALM      30.14S
PATTERSON      CLEAR     78  77  96 CALM      30.14F
SALT POINT       N/A     80  78  94 CALM      30.12S
$$

SELECTED SITES ACROSS THE REGION

CITY           SKY/WX    TMP DP  RH WIND       PRES   REMARKS
HOUSTON BUSH   PTCLDY    79  77  94 CALM      30.13F
HOUSTON HOBBY  PTCLDY    79  77  94 CALM      30.12F
GALVESTON      PTCLDY    84  79  85 S9        30.13F
COLLEGE STAT   CLEAR     75  74  96 S6        30.12F
CONROE         CLEAR     75  74  96 CALM      30.14S FOG
HUNTSVILLE     CLEAR     79  75  87 S6        30.13F
LUFKIN         CLEAR     75  75 100 CALM      30.14S
SHREVEPORT     CLEAR     79  77  94 S8        30.12S
MONROE         CLEAR     77  76  96 CALM      30.14S
NATCHEZ MS     CLEAR     77  72  83 CALM      30.14F
BATON ROUGE    CLEAR     79  77  94 CALM      30.13F
N.O. INTL ARPT CLEAR     82  77  84 SW3       30.13F
SLIDELL        PTCLDY    77  76  96 CALM      30.12F
$$

MARINE REPORTS

STATION/POSITION TIME  SKY/WX   TEMP    WIND        PRES    VSBY
                                AIR SEA DIR/SP/G
                 (UTC)          (F)     (DEG/KT/KT) (MB)    (MI)
BUOY 30 S HIGH I 0750            85 86  180/ 10/ 12 1020.1F
WVE H/P(F/S)=  2/ 6

SEA RIM ST PARK  0800            84     190/  8/ 10 1020.8F
PORT ARTHUR      0700               86  190/  4/  5 1020.6F
SABINE PASS N    0700            82 87  200/  3/  5 1022.0F
TEXAS POINT      NOT AVBL
CALCASIEU PASS   0700            85 87  200/  8/ 10 1019.9F
LK CHARLES BEACH 0700            79 83              1021.2F
MARSH ISLAND     0700            86                   N/A
FRESH WATER LOCK 0700            83 91  280/  1/  2 1021.4F
AMERADA PASS     0700            82 88   CALM  /  1 1020.5F
$$




USA.gov is the U.S. government's official web portal to all federal, state and local government web resources and services.